Location: Haliburton Scout Reserve
(45.0900°N, 78.3200°W)
Time: 14:32:53
(UTC-04:00)

QB50P2 - Visible Passes

Search period start: 16 May 2022 00:00
Search period end: 26 May 2022 00:00
Orbit: 590 x 607 km, 97.9° (Epoch: 15 May)

Date Brightness Start Highest point End Pass type
(mag) Time Alt. Az. Time Alt. Az. Time Alt. Az.
16 May ? 02:27:00 10° NNE 02:31:10 63° ESE 02:31:23 62° ESE visible
16 May ? 04:04:11 10° NNW 04:06:20 14° WNW 04:08:06 11° W visible
17 May ? 02:37:37 10° NNE 02:41:50 83° ESE 02:42:12 72° S visible
17 May ? 04:15:42 10° NW 04:16:51 11° WNW 04:17:59 10° WNW visible
18 May ? 01:15:47 10° E 01:16:16 10° E 01:16:18 10° E visible
18 May ? 02:48:16 10° N 02:52:27 76° WNW 02:53:02 63° SW visible
19 May ? 01:24:57 10° ENE 01:27:02 13° E 01:27:07 13° E visible
19 May ? 02:58:58 10° N 03:03:05 58° WNW 03:03:51 49° WSW visible
20 May ? 01:34:58 10° NE 01:37:47 17° E 01:37:56 17° E visible
20 May ? 03:09:41 10° N 03:13:41 44° WNW 03:14:39 37° WSW visible
21 May ? 01:45:13 10° NE 01:48:30 22° E 01:48:44 22° E visible
21 May ? 03:20:27 10° N 03:24:15 34° WNW 03:25:27 28° WSW visible
22 May ? 01:55:34 10° NE 01:59:12 28° E 01:59:31 28° ESE visible
22 May ? 03:31:16 10° N 03:34:48 27° WNW 03:36:15 22° W visible
23 May ? 02:06:00 10° NNE 02:09:52 36° E 02:10:19 35° ESE visible
23 May ? 03:42:07 10° NNW 03:45:20 22° WNW 03:47:02 17° W visible
24 May ? 02:16:28 10° NNE 02:20:32 47° E 02:21:05 44° SE visible
24 May ? 03:53:04 10° NNW 03:55:51 18° WNW 03:57:48 13° W visible
25 May ? 02:27:00 10° NNE 02:31:10 62° ESE 02:31:51 53° SSE visible
25 May ? 04:04:09 10° NNW 04:06:20 14° WNW 04:08:31 10° W visible
